Wind_Speed
24 25 26 27 26 25 25 25 25 26 27 27 27 27 27 27 27 27 27 28 27 25 26 25 25 25 25 25 25 25 26 26 27 28 28 29 29 29 30 31 31 31 31
26 26 27 27 27 26 25 25 26 27 27 27 27 26 26 26 27 27 27 26 24 24 24 22 23 24 23 24 24 25 25 26 27 27 28 28 29 29 30 31 32 32 32
25 27 26 26 26 25 25 25 26 26 27 27 26 26 26 26 26 26 25 24 23 22 22 22 22 23 23 23 23 24 25 25 26 27 27 27 27 29 29 29 31 32 33
25 26 26 25 24 24 25 25 26 26 26 26 26 26 25 25 25 25 24 23 23 23 23 23 23 24 24 23 23 24 24 24 25 25 26 27 27 28 28 29 30 31 32
24 24 24 23 23 24 25 25 26 26 26 25 25 25 25 25 25 24 23 23 23 23 23 22 23 24 23 23 24 24 24 24 25 25 26 27 27 27 28 28 30 31 32
24 23 23 23 23 24 25 25 25 25 25 25 24 25 25 25 24 24 24 24 24 23 23 23 23 24 23 24 24 24 24 25 25 26 26 26 26 26 27 28 30 31 32
22 21 22 22 23 24 24 24 24 23 23 23 24 24 24 24 24 24 24 23 23 23 23 23 23 23 22 23 24 24 24 24 25 25 26 26 26 26 27 28 29 31 32
21 21 22 23 24 24 23 22 22 22 22 23 23 23 23 23 23 23 22 22 21 22 21 21 22 22 21 22 22 23 23 23 24 25 25 26 26 26 27 28 29 30 31
21 21 22 22 22 22 21 20 20 20 21 21 21 21 21 21 21 21 20 20 20 20 19 20 20 20 20 20 21 21 22 23 24 25 25 26 26 27 27 27 29 29 30
20 20 20 20 20 20 19 19 18 19 20 19 19 19 19 19 19 19 19 19 18 18 18 18 19 19 19 20 20 20 22 24 24 25 25 25 25 26 27 27 28 28 29
19 19 20 19 19 19 19 19 18 19 18 18 17 17 16 16 17 17 17 16 16 17 17 17 18 18 19 20 20 21 22 23 23 24 24 24 24 25 26 26 27 28 29
19 19 18 18 18 18 19 19 18 18 17 16 16 16 16 16 15 16 16 16 16 16 16 16 17 18 19 20 20 20 21 22 22 23 23 23 24 25 25 26 28 28 28
19 19 18 18 18 18 18 18 18 17 15 15 15 14 14 14 14 15 15 15 15 16 16 17 17 18 19 19 20 21 22 23 23 22 22 23 24 25 26 26 27 26 26
19 18 17 17 18 18 18 17 17 16 15 14 14 13 13 13 13 14 15 15 16 16 16 16 17 17 18 19 20 21 22 23 22 22 22 23 24 25 26 26 25 25 25
18 18 17 17 18 18 17 17 17 15 14 13 13 12 12 12 13 14 14 15 16 16 16 16 16 17 18 19 20 21 22 23 23 22 22 23 23 24 25 26 26 26 25
17 18 17 17 17 17 16 16 15 14 13 13 12 12 12 13 13 14 14 15 15 16 16 17 17 18 19 20 21 21 21 22 22 22 22 22 22 24 24 25 25 25 25
18 18 17 16 17 16 16 15 14 12 12 12 12 12 13 13 13 13 14 15 15 16 17 17 18 19 20 21 21 21 21 21 21 21 21 21 22 23 24 25 25 25 25
18 17 17 17 17 16 15 14 13 12 11 12 12 12 12 13 14 15 15 15 16 17 17 18 19 19 20 20 21 21 21 21 21 21 22 22 23 24 24 25 25 25 25
17 17 17 17 16 15 14 13 13 12 12 12 13 12 12 13 14 15 15 15 16 17 17 19 19 19 19 20 21 22 22 22 21 21 22 22 23 24 24 25 25 25 25
16 16 17 17 16 14 13 13 13 13 12 12 12 12 12 13 14 15 15 16 16 17 18 19 19 19 20 21 22 22 23 22 22 22 23 23 24 24 25 25 25 24 24
16 16 16 15 14 13 13 13 13 13 12 11 11 11 12 13 14 15 16 16 17 17 18 19 19 20 21 22 22 23 23 23 23 23 24 24 24 25 25 24 25 25 24
15 15 15 14 13 12 13 13 12 12 12 11 11 12 13 14 14 15 16 17 18 18 18 19 19 20 22 23 23 24 24 24 23 23 23 24 24 24 24 24 24 24 23
15 14 13 12 12 12 13 12 12 12 12 12 12 13 14 15 15 16 17 18 18 18 18 19 19 21 22 23 24 24 23 23 23 23 23 23 23 24 24 24 23 23 23
13 13 12 11 11 12 12 11 12 12 12 12 12 13 14 14 15 16 17 17 18 18 18 19 20 21 22 23 23 23 23 23 24 24 24 24 23 24 24 24 24 23 21
13 12 11 11 12 13 12 11 12 12 12 12 12 13 13 14 15 16 16 17 18 18 19 19 20 21 22 22 23 24 24 24 24 24 24 24 23 24 24 24 23 22 21
13 12 12 12 13 13 12 12 12 12 12 12 12 13 14 14 14 15 16 17 17 18 19 20 21 21 22 23 24 24 24 24 24 24 24 23 23 24 24 25 24 23 21
Wind_Direction
291 292 291 290 292 293 294 293 293 294 295 294 293 294 294 294 295 295 295 295 292 290 289 287 286 286 286 284 282 281 280 280 280 280 280 277 274 270 268 266 266 266 265
290 292 291 291 292 293 293 292 294 294 294 295 294 294 292 293 294 294 294 295 293 292 291 288 285 285 287 286 283 284 283 281 281 281 281 278 274 272 270 267 266 265 265
290 291 291 291 292 293 292 292 293 294 294 293 293 293 293 293 294 294 294 292 291 291 291 290 289 286 287 287 285 286 286 285 284 282 281 280 278 274 270 269 268 266 266
293 292 291 291 291 292 293 292 293 295 295 293 294 296 295 295 295 295 294 292 291 291 291 292 292 291 288 288 288 287 288 289 288 285 283 281 279 276 271 270 269 268 268
295 294 293 292 291 292 294 293 295 295 295 294 295 296 296 295 294 293 293 293 292 293 292 294 293 294 291 291 290 289 290 290 289 287 284 282 280 278 274 272 271 271 270
298 296 297 297 295 296 297 297 296 295 295 297 297 297 296 295 293 293 292 293 293 294 292 293 293 295 293 292 294 292 291 290 289 288 286 284 284 281 278 276 273 272 271
303 301 301 301 301 302 301 299 298 297 297 299 299 298 297 296 295 295 294 293 294 293 292 292 293 295 294 294 295 294 293 291 290 289 288 286 286 283 281 278 276 273 272
309 307 306 305 304 304 303 300 300 301 300 300 300 299 297 297 295 296 297 297 295 294 294 294 295 295 295 296 295 294 293 294 293 292 290 288 288 286 283 281 278 275 273
311 311 309 309 308 308 306 303 304 303 303 303 302 300 298 297 297 297 299 299 298 297 298 298 298 298 298 298 296 295 295 296 296 294 292 290 289 287 286 285 281 278 275
316 315 314 314 313 314 314 310 308 308 307 306 305 303 299 298 299 299 300 301 301 300 301 299 299 300 300 299 298 298 298 299 299 297 294 292 290 289 289 287 283 280 277
321 317 316 317 318 317 316 314 313 313 311 307 307 306 303 302 300 301 302 304 306 304 302 302 302 303 303 302 302 303 302 302 301 298 294 293 291 290 289 289 287 284 281
323 321 319 319 320 321 321 320 317 315 313 312 311 309 306 305 304 306 307 307 308 309 305 305 306 306 308 309 308 304 303 303 300 297 297 295 294 292 291 291 290 288 285
326 325 323 323 323 325 326 325 322 320 317 316 314 314 313 311 311 314 315 314 314 317 313 310 310 312 312 312 311 307 306 307 304 301 299 297 295 295 295 293 293 292 289
330 330 327 328 328 329 329 329 327 325 324 321 320 320 319 318 317 320 322 324 321 322 320 314 314 315 315 315 313 310 310 309 308 304 302 301 300 298 298 296 295 294 291
330 330 327 328 329 330 330 328 328 325 325 326 327 326 327 324 322 324 326 330 329 327 324 322 319 317 318 319 317 315 314 314 313 311 307 304 302 302 301 300 297 295 292
329 329 328 329 330 331 333 332 330 326 326 329 331 329 331 330 328 330 332 333 332 331 329 328 325 323 324 323 321 321 321 320 320 317 311 306 304 303 303 303 302 298 296
329 330 332 332 333 333 333 334 335 335 332 332 333 333 334 335 336 338 337 335 333 332 331 332 330 329 327 326 325 326 325 324 322 321 317 313 310 309 307 306 304 301 300
329 330 332 333 332 332 333 336 337 339 336 336 338 338 339 339 339 339 337 336 336 333 330 333 332 331 330 330 332 331 329 326 325 324 322 319 315 312 311 309 305 303 302
327 328 331 334 335 335 335 335 337 338 337 338 340 340 340 340 341 341 341 341 338 334 332 332 333 333 334 335 335 335 334 332 329 326 325 321 317 314 312 312 309 306 304
326 329 332 334 336 337 339 337 337 339 339 339 341 342 342 342 342 342 343 342 339 337 336 336 336 336 337 337 336 337 336 334 331 327 324 322 320 318 316 315 314 310 307
327 330 332 334 335 336 337 339 341 342 342 343 345 345 342 343 343 343 344 342 341 340 339 339 338 338 338 338 339 338 337 336 333 330 326 324 322 321 319 318 317 315 311
327 329 332 335 337 338 340 340 341 342 341 342 342 341 340 340 340 342 342 343 341 340 340 341 341 341 341 340 340 340 338 337 335 333 331 329 327 327 326 323 322 319 316
326 328 330 335 339 340 342 343 343 342 339 338 338 338 338 341 344 343 343 343 344 344 344 345 344 343 342 341 342 342 341 341 340 338 336 334 332 332 331 330 327 324 322
325 328 329 333 336 337 338 340 341 342 342 340 339 339 341 345 346 345 346 347 347 347 347 346 345 345 345 345 345 346 345 344 344 343 340 338 337 336 335 333 332 330 326
325 326 328 332 335 336 335 336 338 340 340 340 341 343 345 346 346 348 349 349 349 349 349 349 348 349 349 349 348 348 347 347 347 346 345 343 341 340 339 337 335 333 331
317 319 320 324 329 332 333 335 337 338 339 338 341 345 346 346 348 350 349 350 350 351 351 351 350 351 352 352 351 350 349 349 349 349 349 348 345 343 342 341 338 336 333
Height
5839 5836 5834 5832 5829 5827 5824 5822 5819 5817 5814 5811 5808 5805 5803 5800 5798 5796 5793 5791 5788 5786 5784 5782 5781 5779 5777 5775 5774 5773 5772 5770 5769 5769 5767 5766 5766 5765 5766 5766 5766 5766 5767
5833 5831 5828 5826 5824 5821 5819 5816 5814 5811 5808 5805 5802 5799 5797 5794 5792 5790 5787 5784 5782 5780 5778 5777 5775 5773 5771 5770 5768 5767 5765 5764 5763 5761 5759 5758 5758 5758 5757 5758 5758 5758 5759
5827 5824 5822 5820 5818 5815 5812 5810 5807 5805 5802 5798 5796 5793 5790 5788 5786 5784 5781 5779 5777 5775 5773 5771 5769 5767 5766 5764 5762 5761 5759 5757 5756 5754 5752 5751 5751 5750 5750 5750 5749 5749 5750
5820 5818 5816 5814 5811 5809 5806 5804 5801 5799 5796 5793 5790 5787 5785 5782 5780 5778 5775 5773 5771 5769 5767 5766 5764 5762 5760 5758 5756 5754 5753 5751 5749 5747 5745 5744 5743 5742 5742 5742 5741 5741 5741
5814 5812 5810 5807 5805 5803 5800 5798 5795 5792 5789 5787 5784 5781 5779 5776 5774 5772 5770 5768 5766 5763 5761 5760 5758 5756 5754 5752 5749 5748 5746 5744 5742 5740 5739 5737 5735 5734 5733 5733 5733 5732 5731
5808 5806 5804 5801 5799 5797 5794 5791 5788 5786 5783 5780 5778 5775 5773 5770 5768 5766 5764 5762 5759 5757 5755 5754 5752 5750 5748 5746 5744 5742 5740 5738 5735 5733 5732 5730 5728 5726 5725 5725 5724 5723 5722
5802 5800 5798 5796 5793 5790 5787 5784 5781 5779 5776 5774 5772 5769 5766 5764 5762 5759 5757 5755 5753 5751 5750 5748 5746 5744 5742 5740 5738 5735 5733 5731 5729 5726 5725 5723 5721 5719 5717 5716 5715 5714 5713
5797 5795 5792 5789 5786 5783 5780 5778 5775 5773 5771 5768 5766 5763 5761 5758 5756 5753 5751 5749 5747 5745 5744 5742 5740 5738 5736 5734 5732 5729 5727 5725 5722 5720 5717 5715 5713 5711 5710 5708 5707 5706 5705
5792 5790 5787 5783 5780 5777 5775 5772 5770 5767 5765 5763 5760 5758 5755 5753 5750 5748 5746 5743 5741 5740 5738 5736 5734 5732 5730 5728 5725 5723 5721 5718 5715 5712 5710 5708 5706 5704 5702 5700 5698 5697 5696
5788 5785 5782 5779 5775 5772 5770 5767 5765 5762 5760 5758 5755 5753 5750 5748 5746 5744 5741 5739 5737 5735 5733 5731 5729 5726 5724 5722 5719 5717 5714 5711 5708 5705 5703 5701 5699 5696 5694 5692 5690 5688 5687
5784 5781 5778 5775 5772 5769 5765 5763 5760 5758 5755 5753 5750 5747 5745 5743 5741 5739 5737 5735 5733 5730 5728 5726 5723 5721 5719 5716 5714 5711 5708 5704 5701 5698 5696 5694 5692 5689 5687 5684 5682 5680 5678
5781 5778 5775 5772 5768 5765 5762 5759 5756 5753 5751 5748 5745 5743 5741 5739 5737 5735 5733 5731 5729 5726 5724 5721 5719 5717 5714 5711 5708 5705 5701 5698 5695 5692 5690 5687 5685 5682 5679 5677 5674 5671 5669
5778 5775 5772 5769 5765 5762 5759 5756 5752 5749 5747 5744 5742 5739 5737 5735 5733 5731 5729 5727 5725 5722 5719 5717 5714 5712 5709 5706 5703 5699 5696 5693 5689 5686 5683 5681 5678 5675 5672 5669 5665 5663 5660
5776 5772 5769 5766 5763 5759 5756 5753 5749 5746 5744 5741 5739 5736 5734 5732 5730 5728 5726 5724 5721 5718 5716 5713 5710 5707 5704 5701 5698 5694 5691 5687 5684 5680 5677 5674 5671 5668 5665 5661 5658 5655 5653
5773 5770 5767 5764 5760 5757 5753 5750 5747 5744 5741 5739 5736 5734 5732 5730 5728 5726 5724 5721 5718 5715 5713 5709 5707 5704 5700 5697 5693 5689 5686 5682 5678 5674 5671 5668 5665 5661 5658 5654 5651 5648 5645
5771 5768 5765 5761 5758 5754 5751 5748 5745 5742 5740 5737 5735 5732 5730 5728 5726 5724 5721 5719 5716 5713 5710 5707 5703 5700 5696 5693 5689 5685 5681 5677 5673 5669 5665 5662 5659 5655 5652 5648 5644 5641 5638
5769 5765 5762 5759 5755 5752 5749 5746 5743 5741 5738 5736 5734 5731 5729 5726 5724 5721 5719 5716 5713 5710 5707 5704 5700 5697 5693 5689 5685 5680 5676 5672 5668 5664 5660 5657 5653 5649 5646 5642 5638 5634 5630
5766 5763 5760 5756 5753 5750 5747 5745 5742 5740 5737 5735 5733 5730 5728 5725 5723 5720 5717 5714 5711 5708 5704 5701 5697 5693 5689 5685 5681 5676 5672 5668 5663 5659 5655 5652 5648 5644 5640 5636 5632 5628 5624
5764 5761 5758 5754 5751 5748 5746 5743 5741 5738 5736 5734 5731 5729 5726 5724 5721 5718 5715 5712 5709 5705 5702 5698 5694 5690 5686 5681 5677 5673 5668 5663 5659 5655 5651 5647 5643 5639 5634 5630 5626 5621 5617
5761 5758 5756 5752 5749 5747 5744 5742 5739 5737 5735 5732 5730 5727 5725 5722 5720 5717 5713 5710 5706 5703 5699 5695 5691 5687 5683 5678 5674 5669 5664 5659 5655 5651 5646 5642 5637 5633 5628 5624 5619 5614 5610
5759 5756 5754 5751 5748 5746 5743 5741 5738 5736 5733 5731 5729 5726 5724 5721 5718 5715 5712 5708 5704 5701 5697 5693 5688 5684 5680 5675 5670 5665 5660 5656 5651 5646 5641 5637 5632 5627 5622 5617 5612 5608 5603
5757 5754 5752 5749 5747 5744 5742 5739 5737 5735 5732 5730 5728 5725 5722 5719 5716 5713 5710 5706 5702 5698 5694 5690 5686 5681 5676 5672 5666 5661 5656 5651 5646 5642 5636 5631 5626 5621 5616 5611 5606 5601 5596
5755 5753 5750 5748 5746 5743 5741 5738 5736 5733 5731 5729 5726 5724 5721 5718 5714 5711 5707 5703 5699 5695 5691 5687 5683 5678 5673 5668 5663 5658 5653 5648 5643 5637 5632 5627 5622 5616 5611 5606 5600 5595 5591
5753 5751 5748 5746 5744 5742 5739 5737 5735 5732 5730 5727 5724 5722 5719 5716 5712 5709 5705 5701 5697 5693 5689 5685 5680 5675 5670 5665 5660 5655 5649 5644 5639 5634 5628 5623 5617 5612 5606 5601 5596 5591 5586
5751 5749 5747 5745 5743 5740 5738 5735 5733 5730 5728 5725 5723 5720 5717 5714 5710 5707 5703 5699 5695 5691 5687 5682 5677 5673 5668 5662 5657 5651 5646 5641 5636 5630 5624 5619 5613 5608 5602 5597 5592 5587 5582
5748 5746 5745 5743 5741 5738 5736 5733 5731 5728 5726 5723 5721 5718 5715 5711 5708 5705 5701 5697 5693 5689 5685 5680 5675 5670 5665 5660 5654 5649 5643 5638 5632 5627 5621 5616 5610 5605 5599 5594 5588 5583 5578